User: anonymous   Login
Location: Newark
(48.0000°N, 67.0000°E)
Time: 14:43:37
(UTC+00:00)
Language:

DUCHIFAT 1 - Orbit

View from above orbital plane
View from above orbital plane
View from above satellite
View from above satellite

Ground track
Ground track

The orbit data is extracted from the following two-line orbital elements,

1 40021U 14033M   20095.04972206  .00000268  00000-0  33071-4 0  9998
2 40021  97.9392  25.8495 0012998 166.3157 193.8416 14.90852028314806
Epoch (UTC): 04 April 2020 01:11:35
Eccentricity: 0.0012998
inclination: 97.9392°
perigee height: 586 km
apogee height: 604 km
right ascension of ascending node: 25.8495°
argument of perigee: 166.3157°
revolutions per day: 14.90852028
mean anomaly at epoch: 193.8416°
orbit number at epoch: 31480

The dashed part of the orbit path shows where the satellite is in the earth's shadow,  

DLR